Location: Santa Clara
(37.3540°N, 121.9540°W)
Time: 01:15:51
(UTC-07:00)

ISS - Pass Details

Date: 30 May 2024
Orbit: 411 x 425 km, 51.6° (Epoch: 16 June)

Event Time Altitude Azimuth Distance (km) Brightness Sun altitude
Rises 21:33:16 0° 297° (WNW) 2,388 1.8 -12.5°
Reaches altitude 10° 21:35:41 10° 281° (WNW) 1,516 0.1 -12.8°
Maximum altitude 21:38:21 22° 230° (SW) 991 -1.8 -13.2°
Enters shadow 21:40:29 13° 184° (S) 1,340 -1.6 -13.5°
